EW9532 Weather Reports


Display with metric or nautical units.
time (UTC)temp
F
wind
direction
speed
MPH
gust
MPH
rain 1hr
in
rain 24hr
in
rain mn
in
humidity
%
barometer
mb
20260904133109 83 120 2.0 7.0 0.00 0.00 0.00 83 1013.8
20260904132829 84 263 2.0 7.0 0.00 0.00 0.00 83 1013.7
20260904132329 84 172 2.0 7.0 0.00 0.00 0.00 84 1013.8
20260904131829 83 113 1.0 5.0 0.00 0.00 0.00 84 1013.6
20260904131554 83 293 1.0 5.0 0.00 0.00 0.00 84 1013.8
20260904131329 83 233 2.0 5.0 0.00 0.00 0.00 84 1013.6
20260904130829 83 184 2.0 8.0 0.00 0.00 0.00 85 1013.5
20260904130329 83 285 4.0 8.0 0.00 0.00 0.00 85 1013.5
20260904130053 82 159 2.0 6.0 0.00 0.00 0.00 85 1013.7
20260904125828 83 211 1.0 6.0 0.00 0.00 0.00 86 1013.5
20260904125331 83 148 2.0 4.0 0.00 0.00 0.00 86 1013.4
20260904124829 82 240 2.0 4.0 0.00 0.00 0.00 86 1013.3
20260904124635 82 224 1.0 4.0 0.00 0.00 0.00 86 1013.7
20260904124329 82 326 2.0 4.0 0.00 0.00 0.00 87 1013.4
20260904123828 82 138 2.0 4.0 0.00 0.00 0.00 87 1013.5
20260904123328 82 188 2.0 4.0 0.00 0.00 0.00 87 1013.4
20260904123056 81 266 1.0 3.0 0.00 0.00 0.00 86 1013.5
20260904122829 82 307 1.0 3.0 0.00 0.00 0.00 87 1013.2
20260904122330 82 219 2.0 4.0 0.00 0.00 0.00 87 1013.0
20260904121830 82 207 1.0 4.0 0.00 0.00 0.00 87 1012.9
20260904121600 81 250 1.0 5.0 0.00 0.00 0.00 86 1013.0
20260904121331 82 167 2.0 6.0 0.00 0.00 0.00 87 1012.9
20260904120830 82 275 1.0 6.0 0.00 0.00 0.00 87 1012.9
20260904120331 82 245 2.0 3.0 0.00 0.00 0.00 87 1012.7
20260904120118 82 98 1.0 5.0 0.00 0.00 0.00 86 1012.7
20260904120111 81 243 1.0 5.0 0.00 0.00 0.00 86 1013.0
20260904115553 82 314 1.0 5.0 0.00 0.00 0.00 86 1012.6
20260904114830 82 28 3.0 9.0 0.00 0.00 0.00 86 1012.7
20260904114558 81 258 1.0 9.0 0.00 0.00 0.00 86 1012.8
20260904114330 82 333 1.0 9.0 0.00 0.00 0.00 86 1012.5
20260904113830 82 346 1.0 3.0 0.00 0.00 0.00 86 1012.6
20260904113330 82 303 1.0 3.0 0.00 0.00 0.00 86 1012.5
20260904113056 82 56 0.0 2.0 0.00 0.00 0.00 85 1012.8
20260904112829 82 11 1.0 3.0 0.00 0.00 0.00 85 1012.6
20260904112329 82 270 0.0 4.0 0.00 0.00 0.00 85 1012.6
20260904111829 82 247 1.0 4.0 0.00 0.00 0.00 85 1012.5
20260904111603 82 323 1.0 5.0 0.00 0.00 0.00 85 1012.8
20260904111329 82 334 1.0 6.0 0.00 0.00 0.00 85 1012.6
20260904110829 82 206 2.0 6.0 0.00 0.00 0.00 85 1012.6
20260904110552 82 148 2.0 6.0 0.00 0.00 0.00 85 1012.6
20260904110104 82 149 1.0 7.0 0.00 0.00 0.00 84 1012.8
20260904105829 83 240 1.0 6.0 0.00 0.00 0.00 85 1012.6
20260904105328 83 132 2.0 7.0 0.00 0.00 0.00 84 1012.6
20260904105320 83 64 2.0 7.0 0.00 0.00 0.00 84 1012.6
20260904104556 82 203 1.0 4.0 0.00 0.00 0.00 84 1012.9
20260904104329 83 128 2.0 5.0 0.00 0.00 0.00 84 1012.8
20260904103828 83 226 1.0 10.0 0.00 0.00 0.00 84 1012.8
20260904103329 83 253 2.0 5.0 0.00 0.00 0.00 84 1012.5
20260904103131 82 323 2.0 7.0 0.00 0.00 0.00 83 1012.7
20260904103055 82 323 2.0 7.0 0.00 0.00 0.00 83 1012.7
20260904102829 83 122 1.0 7.0 0.00 0.00 0.00 84 1012.5
20260904102328 83 166 2.0 8.0 0.00 0.00 0.00 84 1012.4
20260904101830 83 264 3.0 8.0 0.00 0.00 0.00 83 1012.4
20260904101605 82 82 2.0 9.0 0.00 0.00 0.00 83 1012.6
20260904101330 83 87 2.0 8.0 0.00 0.00 0.00 83 1012.4
20260904100830 83 274 3.0 8.0 0.00 0.00 0.00 83 1012.6
20260904100330 83 321 2.0 7.0 0.00 0.00 0.00 83 1012.5
20260904095830 83 307 3.0 7.0 0.00 0.00 0.00 83 1012.5
20260904095329 83 246 2.0 7.0 0.00 0.00 0.00 83 1012.5
20260904094829 83 236 2.0 7.0 0.00 0.00 0.00 83 1012.6
20260904094556 83 295 1.0 6.0 0.00 0.00 0.00 83 1012.8
20260904094552 83 74 2.0 6.0 0.00 0.00 0.00 83 1012.6
20260904093829 83 290 2.0 6.0 0.00 0.00 0.00 83 1012.6
20260904093329 83 72 3.0 5.0 0.00 0.00 0.00 83 1012.6
20260904093054 83 88 1.0 4.0 0.00 0.00 0.00 83 1012.8
20260904092829 83 167 1.0 4.0 0.00 0.00 0.00 83 1012.6
20260904092554 83 291 2.0 7.0 0.00 0.00 0.00 83 1012.6
20260904092050 83 64 2.0 7.0 0.00 0.00 0.00 83 1012.7
20260904091601 83 198 1.0 6.0 0.00 0.00 0.00 82 1012.8
20260904091329 83 92 1.0 6.0 0.00 0.00 0.00 83 1012.6
20260904090828 83 241 2.0 6.0 0.00 0.00 0.00 83 1012.6
20260904090329 83 42 2.0 4.0 0.00 0.00 0.00 83 1012.6
20260904090131 83 194 2.0 4.0 0.00 0.00 0.00 83 1012.7
20260904090059 83 275 1.0 4.0 0.00 0.00 0.00 82 1012.7
20260904085329 84 1 0.0 5.0 0.00 0.00 0.00 83 1012.6
20260904084829 84 205 1.0 5.0 0.00 0.00 0.00 82 1012.7
20260904084558 83 110 1.0 6.0 0.00 0.00 0.00 82 1012.9
20260904084329 84 321 2.0 7.0 0.00 0.00 0.00 82 1012.8
20260904084052 84 141 2.0 7.0 0.00 0.00 0.00 82 1012.8
20260904083817 84 330 2.0 6.0 0.00 0.00 0.00 82 1012.8
20260904083524 84 356 0.0 7.0 0.00 0.00 0.00 82 1012.9
20260904083105 83 0 2.0 6.0 0.00 0.00 0.00 82 1013.1
20260904082328 84 231 1.0 6.0 0.00 0.00 0.00 82 1012.9
20260904081831 84 1 2.0 9.0 0.00 0.00 0.00 82 1012.9
20260904081605 84 115 1.0 8.0 0.00 0.00 0.00 82 1013.1
20260904081331 84 264 3.0 9.0 0.00 0.00 0.00 82 1012.9
20260904080831 84 158 2.0 6.0 0.00 0.00 0.00 82 1013.0
20260904080330 84 355 1.0 6.0 0.00 0.00 0.00 82 1013.1
20260904080110 84 180 3.0 7.0 0.00 0.00 0.00 82 1013.0
20260904080106 84 118 3.0 8.0 0.00 0.00 0.00 82 1013.2
20260904075328 84 218 3.0 8.0 0.00 0.00 0.00 82 1013.0
20260904074830 84 89 4.0 8.0 0.00 0.00 0.00 82 1013.0
20260904074557 84 6 2.0 8.0 0.00 0.00 0.00 82 1013.3
20260904074329 84 281 2.0 6.0 0.00 0.00 0.00 82 1013.0
20260904073829 84 274 2.0 8.0 0.00 0.00 0.00 82 1013.1
20260904073328 84 75 3.0 8.0 0.00 0.00 0.00 82 1013.1
20260904073107 84 20 3.0 9.0 0.00 0.00 0.00 81 1013.4
20260904072829 84 75 3.0 8.0 0.00 0.00 0.00 82 1013.0
20260904072324 85 72 3.0 7.0 0.00 0.00 0.00 82 1013.2
20260904071821 85 151 4.0 7.0 0.00 0.00 0.00 81 1013.2
20260904071626 84 150 2.0 7.0 0.00 0.00 0.00 81 1013.5
20260904071321 85 304 2.0 8.0 0.00 0.00 0.00 81 1013.3
20260904070815 85 290 4.0 8.0 0.00 0.00 0.00 81 1013.4
20260904070549 85 133 2.0 7.0 0.00 0.00 0.00 81 1013.5
20260904070100 84 125 1.0 9.0 0.00 0.00 0.00 81 1013.6
20260904070039 85 105 2.0 7.0 0.00 0.00 0.00 81 1013.4
20260904065307 85 205 3.0 7.0 0.00 0.00 0.00 81 1013.6
20260904064803 85 56 2.0 10.0 0.00 0.00 0.00 81 1013.5
20260904064607 84 283 3.0 11.0 0.00 0.00 0.00 81 1013.7
20260904064303 85 341 5.0 10.0 0.00 0.00 0.00 81 1013.5
20260904063805 85 306 4.0 9.0 0.00 0.00 0.00 81 1013.4
20260904063302 85 341 3.0 11.0 0.00 0.00 0.00 82 1013.3
20260904063107 84 20 3.0 14.0 0.00 0.00 0.00 81 1013.6
20260904062800 85 259 4.0 11.0 0.00 0.00 0.00 82 1013.3
20260904062535 85 98 2.0 7.0 0.00 0.00 0.00 82 1013.3
20260904061801 85 193 3.0 12.0 0.00 0.00 0.00 82 1013.3
20260904061754 85 333 4.0 12.0 0.00 0.00 0.00 82 1013.3
20260904061601 84 132 2.0 11.0 0.00 0.00 0.00 82 1013.4
20260904060801 85 190 4.0 9.0 0.00 0.00 0.00 82 1013.3
20260904060301 85 214 2.0 9.0 0.00 0.00 0.00 82 1013.2
20260904060121 84 245 3.0 8.0 0.00 0.00 0.00 81 1013.5
20260904055801 85 24 3.0 7.0 0.00 0.00 0.00 81 1013.4
20260904055301 85 51 3.0 7.0 0.00 0.00 0.00 81 1013.2
20260904055034 85 205 2.0 6.0 0.00 0.00 0.00 81 1013.3
20260904054604 85 181 2.0 9.0 0.00 0.00 0.00 81 1013.6
20260904054246 85 357 2.0 6.0 0.00 0.00 0.00 81 1013.3
20260904053745 85 285 2.0 8.0 0.00 0.00 0.00 81 1013.6
20260904053240 85 63 2.0 10.0 0.00 0.00 0.00 81 1013.5
20260904053055 85 335 3.0 9.0 0.00 0.00 0.00 80 1013.6
20260904052734 85 263 4.0 10.0 0.00 0.00 0.00 80 1013.6
20260904052231 85 221 2.0 8.0 0.00 0.00 0.00 80 1013.5
20260904051730 85 228 4.0 14.0 0.00 0.00 0.00 80 1013.6
20260904051552 85 101 3.0 13.0 0.00 0.00 0.00 79 1013.6
20260904051231 85 302 4.0 14.0 0.00 0.00 0.00 80 1013.5
20260904050719 85 330 5.0 9.0 0.00 0.00 0.00 80 1013.6
20260904050212 85 288 3.0 8.0 0.00 0.00 0.00 80 1013.8
20260904050058 85 98 2.0 7.0 0.00 0.00 0.00 79 1013.9
20260904045711 85 25 3.0 9.0 0.00 0.00 0.00 80 1013.8
20260904045207 86 252 2.0 9.0 0.00 0.00 0.00 80 1013.7
20260904044703 86 30 2.0 7.0 0.00 0.00 0.00 80 1013.7
20260904044601 85 186 2.0 8.0 0.00 0.00 0.00 79 1013.9
20260904044205 86 137 2.0 7.0 0.00 0.00 0.00 80 1013.7
20260904043702 86 320 4.0 8.0 0.00 0.00 0.00 79 1013.6
20260904043203 86 79 3.0 9.0 0.00 0.00 0.00 79 1013.6
20260904043112 85 333 3.0 8.0 0.00 0.00 0.00 79 1013.8
20260904042702 86 304 3.0 12.0 0.00 0.00 0.00 79 1013.5
20260904042203 86 179 4.0 12.0 0.00 0.00 0.00 79 1013.6
20260904041702 86 275 5.0 9.0 0.00 0.00 0.00 79 1013.5
20260904041601 85 309 3.0 8.0 0.00 0.00 0.00 78 1013.7
20260904041215 86 207 3.0 9.0 0.00 0.00 0.00 78 1013.4
20260904040708 86 18 4.0 9.0 0.00 0.00 0.00 78 1013.4
20260904040210 86 253 5.0 11.0 0.00 0.00 0.00 78 1013.4
20260904040054 86 330 4.0 12.0 0.00 0.00 0.00 77 1013.6
20260904035925 86 304 3.0 11.0 0.00 0.00 0.00 78 1013.4
20260904035157 86 196 4.0 11.0 0.00 0.00 0.00 77 1013.4
20260904034906 86 295 5.0 14.0 0.00 0.00 0.00 77 1013.3
20260904034853 86 356 4.0 11.0 0.00 0.00 0.00 77 1013.3
20260904034552 86 88 4.0 13.0 0.00 0.00 0.00 77 1013.5
20260904033644 86 315 4.0 12.0 0.00 0.00 0.00 77 1013.2
20260904033140 86 289 4.0 9.0 0.00 0.00 0.00 77 1013.1
20260904033102 86 186 3.0 11.0 0.00 0.00 0.00 76 1013.4
20260904032636 86 307 4.0 9.0 0.00 0.00 0.00 76 1013.0
20260904032132 87 49 4.0 9.0 0.00 0.00 0.00 76 1013.0
20260904031634 87 193 5.0 11.0 0.00 0.00 0.00 76 1013.0
20260904031556 86 306 5.0 11.0 0.00 0.00 0.00 75 1013.2
20260904031131 87 257 6.0 11.0 0.00 0.00 0.00 75 1012.8
20260904030630 87 40 5.0 9.0 0.00 0.00 0.00 75 1012.8
20260904030349 87 226 5.0 9.0 0.00 0.00 0.00 75 1012.7
20260904030103 86 116 4.0 11.0 0.00 0.00 0.00 75 1013.0
20260904025630 87 17 4.0 11.0 0.00 0.00 0.00 75 1012.6
20260904025130 87 197 6.0 11.0 0.00 0.00 0.00 75 1012.6
20260904024851 87 153 3.0 11.0 0.00 0.00 0.00 74 1012.5
20260904024608 87 184 3.0 11.0 0.00 0.00 0.00 74 1012.7
20260904024131 87 124 4.0 13.0 0.00 0.00 0.00 74 1012.5
20260904023630 87 137 4.0 13.0 0.00 0.00 0.00 74 1012.4
20260904023350 87 118 5.0 10.0 0.00 0.00 0.00 73 1012.5
20260904023114 87 314 4.0 10.0 0.00 0.00 0.00 73 1012.7
20260904022630 87 101 5.0 10.0 0.00 0.00 0.00 73 1012.5
20260904022143 88 205 5.0 10.0 0.00 0.00 0.00 72 1012.4
20260904021630 88 262 5.0 10.0 0.00 0.00 0.00 72 1012.3
20260904021557 87 269 5.0 11.0 0.00 0.00 0.00 71 1012.5
20260904021353 88 278 4.0 11.0 0.00 0.00 0.00 71 1012.2
20260904020630 88 174 5.0 11.0 0.00 0.00 0.00 71 1012.0
20260904020131 88 130 4.0 12.0 0.00 0.00 0.00 71 1012.2
20260904015630 88 71 5.0 12.0 0.00 0.00 0.00 71 1012.0
20260904015129 89 51 4.0 9.0 0.00 0.00 0.00 71 1011.9
20260904014628 89 74 4.0 11.0 0.00 0.00 0.00 70 1012.1
20260904014602 88 254 4.0 10.0 0.00 0.00 0.00 70 1012.2
20260904014353 89 118 4.0 11.0 0.00 0.00 0.00 70 1011.9
20260904013629 89 297 4.0 9.0 0.00 0.00 0.00 69 1011.7
20260904013129 89 147 3.0 12.0 0.00 0.00 0.00 69 1011.6
20260904013126 89 102 4.0 15.0 0.00 0.00 0.00 68 1011.8
20260904012628 89 281 7.0 12.0 0.00 0.00 0.00 68 1011.4
20260904012129 90 281 3.0 10.0 0.00 0.00 0.00 68 1011.4
20260904011629 90 158 5.0 12.0 0.00 0.00 0.00 67 1011.3
20260904011601 90 177 4.0 12.0 0.00 0.00 0.00 67 1011.6
20260904011129 90 356 5.0 12.0 0.00 0.00 0.00 67 1011.4
20260904010629 90 62 5.0 13.0 0.00 0.00 0.00 66 1011.3
20260904010347 91 233 7.0 16.0 0.00 0.00 0.00 65 1011.1
20260904010101 90 96 7.0 15.0 0.00 0.00 0.00 64 1011.5
20260904005629 91 328 5.0 16.0 0.00 0.00 0.00 64 1011.2
20260904005131 92 212 4.0 14.0 0.00 0.00 0.00 63 1011.1
20260904004629 92 210 7.0 14.0 0.00 0.00 0.00 63 1011.1
20260904004603 91 49 7.0 14.0 0.00 0.00 0.00 62 1011.3
20260904004129 92 225 6.0 11.0 0.00 0.00 0.00 61 1011.0
20260904003630 92 205 5.0 13.0 0.00 0.00 0.00 61 1011.0
20260904003617 93 295 6.0 13.0 0.00 0.00 0.00 60 1011.0
20260904003053 93 169 6.0 13.0 0.00 0.00 0.00 59 1011.3
20260904002628 94 80 4.0 13.0 0.00 0.00 0.00 59 1010.9
20260904002128 94 1 6.0 13.0 0.00 0.00 0.00 58 1010.9
20260904001629 95 307 4.0 12.0 0.00 0.00 0.00 57 1010.8
20260904001610 94 302 4.0 9.0 0.00 0.00 0.00 56 1011.2
20260904001129 95 122 3.0 10.0 0.00 0.00 0.00 56 1010.8
20260904000630 95 257 6.0 13.0 0.00 0.00 0.00 55 1010.8
20260904000129 95 304 6.0 13.0 0.00 0.00 0.00 54 1010.7
20260904000103 95 231 6.0 12.0 0.00 0.00 0.00 53 1011.1
20260903235629 96 326 6.0 12.0 0.00 0.00 0.00 53 1010.7
20260903235336 97 248 4.0 11.0 0.00 0.00 0.00 51 1010.7
20260903235324 96 13 6.0 12.0 0.00 0.00 0.00 52 1010.7
20260903234556 96 354 2.0 12.0 0.00 0.00 0.00 51 1010.9
20260903234129 97 302 6.0 13.0 0.00 0.00 0.00 49 1010.6
20260903233630 97 274 6.0 13.0 0.00 0.00 0.00 49 1010.7
20260903233349 97 286 5.0 12.0 0.00 0.00 0.00 49 1010.5
20260903233106 97 332 4.0 13.0 0.00 0.00 0.00 48 1010.9
20260903232609 97 60 5.0 12.0 0.00 0.00 0.00 50 1010.5
20260903232109 98 173 6.0 12.0 0.00 0.00 0.00 50 1010.4
20260903231609 98 159 6.0 15.0 0.00 0.00 0.00 49 1010.8
20260903231605 98 28 7.0 13.0 0.00 0.00 0.00 50 1010.4
20260903231101 98 283 6.0 16.0 0.00 0.00 0.00 50 1010.3
20260903230601 99 257 5.0 14.0 0.00 0.00 0.00 49 1010.3
20260903230057 99 168 3.0 13.0 0.00 0.00 0.00 49 1010.6
20260903225601 99 170 8.0 13.0 0.00 0.00 0.00 49 1009.9
20260903225101 100 227 4.0 11.0 0.00 0.00 0.00 48 1009.9
20260903224604 99 91 5.0 15.0 0.00 0.00 0.00 47 1010.1
20260903224600 100 167 5.0 13.0 0.00 0.00 0.00 47 1009.9
20260903224101 100 305 6.0 13.0 0.00 0.00 0.00 46 1009.8
20260903223550 101 111 6.0 12.0 0.00 0.00 0.00 45 1009.7
20260903223112 101 283 5.0 14.0 0.00 0.00 0.00 44 1009.9
20260903223045 101 77 5.0 11.0 0.00 0.00 0.00 44 1009.6
20260903222541 102 357 4.0 12.0 0.00 0.00 0.00 43 1009.7
20260903222039 103 304 3.0 12.0 0.00 0.00 0.00 43 1009.7
20260903221555 102 179 4.0 10.0 0.00 0.00 0.00 42 1010.0
20260903221535 103 95 4.0 9.0 0.00 0.00 0.00 42 1009.7
20260903221030 102 240 5.0 13.0 0.00 0.00 0.00 42 1009.7
20260903220529 102 266 4.0 13.0 0.00 0.00 0.00 42 1009.4
20260903220059 102 287 4.0 8.0 0.00 0.00 0.00 41 1009.8
20260903220029 102 335 5.0 9.0 0.00 0.00 0.00 42 1009.5
20260903215529 103 18 3.0 9.0 0.00 0.00 0.00 42 1009.5
20260903215029 103 71 5.0 10.0 0.00 0.00 0.00 41 1009.5
20260903214759 103 62 5.0 10.0 0.00 0.00 0.00 42 1009.4
20260903214553 102 292 3.0 9.0 0.00 0.00 0.00 41 1009.7
20260903214028 102 344 5.0 9.0 0.00 0.00 0.00 42 1009.6
20260903213530 103 242 3.0 10.0 0.00 0.00 0.00 42 1009.5
20260903213143 102 78 4.0 12.0 0.00 0.00 0.00 42 1009.9
20260903213031 103 86 4.0 12.0 0.00 0.00 0.00 42 1009.6
20260903212529 102 343 3.0 12.0 0.00 0.00 0.00 44 1009.6
20260903212029 102 16 3.0 11.0 0.00 0.00 0.00 44 1009.6
20260903211752 102 53 5.0 10.0 0.00 0.00 0.00 44 1009.6
20260903211556 102 25 5.0 11.0 0.00 0.00 0.00 44 1009.9
20260903211028 103 198 5.0 9.0 0.00 0.00 0.00 43 1009.7
20260903210529 102 289 4.0 11.0 0.00 0.00 0.00 44 1009.7
20260903210058 104 238 4.0 12.0 0.00 0.00 0.00 42 1010.1
20260903210029 104 287 6.0 11.0 0.00 0.00 0.00 42 1009.8
20260903205530 104 281 3.0 9.0 0.00 0.00 0.00 43 1009.8
20260903205029 103 307 4.0 9.0 0.00 0.00 0.00 45 1009.9
20260903204553 103 87 4.0 9.0 0.00 0.00 0.00 45 1010.2
20260903204529 103 215 4.0 9.0 0.00 0.00 0.00 46 1009.9
20260903204253 103 44 4.0 10.0 0.00 0.00 0.00 45 1010.1
20260903203756 103 335 4.0 10.0 0.00 0.00 0.00 46 1009.9
20260903203059 103 157 3.0 9.0 0.00 0.00 0.00 44 1010.3
20260903203043 104 346 4.0 9.0 0.00 0.00 0.00 44 1010.0
20260903202534 104 150 3.0 9.0 0.00 0.00 0.00 45 1010.1
20260903202042 104 213 4.0 8.0 0.00 0.00 0.00 46 1010.0
20260903201606 103 297 3.0 8.0 0.00 0.00 0.00 45 1010.5
20260903201543 103 72 4.0 9.0 0.00 0.00 0.00 45 1010.2
20260903201259 103 3 4.0 9.0 0.00 0.00 0.00 46 1010.2
20260903200526 103 321 3.0 7.0 0.00 0.00 0.00 47 1010.4
20260903200243 103 219 3.0 7.0 0.00 0.00 0.00 45 1010.3
20260903200056 103 169 3.0 7.0 0.00 0.00 0.00 45 1010.6
20260903195522 105 226 3.0 8.0 0.00 0.00 0.00 44 1010.4
20260903195016 104 236 3.0 8.0 0.00 0.00 0.00 44 1010.5
20260903194626 103 333 2.0 8.0 0.00 0.00 0.00 44 1010.9
20260903194517 104 58 2.0 8.0 0.00 0.00 0.00 43 1010.5
20260903194227 104 161 4.0 7.0 0.00 0.00 0.00 43 1010.6
20260903193509 103 11 2.0 7.0 0.00 0.00 0.00 44 1010.8
20260903193101 102 328 4.0 8.0 0.00 0.00 0.00 43 1011.1
20260903193008 103 356 4.0 7.0 0.00 0.00 0.00 44 1010.9
20260903192508 103 63 4.0 7.0 0.00 0.00 0.00 44 1010.8
20260903192006 103 270 4.0 8.0 0.00 0.00 0.00 44 1011.0
20260903191554 103 185 1.0 9.0 0.00 0.00 0.00 45 1011.3
20260903191506 103 208 2.0 9.0 0.00 0.00 0.00 45 1011.1
20260903191000 103 143 2.0 9.0 0.00 0.00 0.00 44 1011.1
20260903190454 103 313 2.0 8.0 0.00 0.00 0.00 45 1011.3
20260903190218 103 26 4.0 8.0 0.00 0.00 0.00 44 1011.3
20260903190054 102 42 4.0 8.0 0.00 0.00 0.00 45 1011.7
20260903185447 103 304 2.0 6.0 0.00 0.00 0.00 46 1011.6
20260903184942 103 245 2.0 5.0 0.00 0.00 0.00 45 1011.7
20260903184557 102 280 2.0 9.0 0.00 0.00 0.00 46 1011.9
20260903184438 102 301 2.0 9.0 0.00 0.00 0.00 47 1011.8
20260903183933 101 293 3.0 11.0 0.00 0.00 0.00 48 1011.8
20260903183432 101 143 6.0 11.0 0.00 0.00 0.00 47 1011.9
20260903183131 100 5 3.0 8.0 0.00 0.00 0.00 47 1012.2
20260903182946 101 349 4.0 9.0 0.00 0.00 0.00 47 1012.0
20260903182431 101 98 2.0 9.0 0.00 0.00 0.00 48 1012.2
20260903181933 101 66 4.0 9.0 0.00 0.00 0.00 48 1012.2
20260903181604 100 281 2.0 9.0 0.00 0.00 0.00 48 1012.5
20260903181431 100 172 2.0 8.0 0.00 0.00 0.00 49 1012.4
20260903180929 100 195 3.0 12.0 0.00 0.00 0.00 49 1012.4
20260903180423 100 259 5.0 12.0 0.00 0.00 0.00 49 1012.6
20260903180109 100 120 3.0 8.0 0.00 0.00 0.00 47 1012.8
20260903175925 100 181 3.0 8.0 0.00 0.00 0.00 49 1012.7
20260903175420 99 20 4.0 10.0 0.00 0.00 0.00 49 1012.7
20260903174915 99 297 4.0 10.0 0.00 0.00 0.00 49 1012.7
20260903174555 99 174 3.0 8.0 0.00 0.00 0.00 49 1013.1
20260903174410 100 297 3.0 9.0 0.00 0.00 0.00 50 1012.9
20260903173904 99 198 3.0 9.0 0.00 0.00 0.00 50 1013.0
20260903173403 99 279 4.0 9.0 0.00 0.00 0.00 51 1012.9
20260903173109 98 96 3.0 10.0 0.00 0.00 0.00 52 1013.3
20260903172902 99 52 3.0 9.0 0.00 0.00 0.00 51 1013.2
20260903172402 98 203 3.0 9.0 0.00 0.00 0.00 52 1013.2
20260903171902 98 221 3.0 8.0 0.00 0.00 0.00 52 1013.2
20260903171602 97 9 4.0 8.0 0.00 0.00 0.00 52 1013.5
20260903171403 98 50 4.0 8.0 0.00 0.00 0.00 52 1013.5
20260903171126 98 334 3.0 8.0 0.00 0.00 0.00 52 1013.6
20260903170403 97 8 4.0 8.0 0.00 0.00 0.00 54 1013.7
20260903170058 96 230 4.0 9.0 0.00 0.00 0.00 53 1013.9
20260903165903 97 205 3.0 10.0 0.00 0.00 0.00 54 1013.6
20260903165402 96 169 4.0 10.0 0.00 0.00 0.00 57 1013.7
20260903164902 96 281 4.0 11.0 0.00 0.00 0.00 56 1013.9
20260903164609 96 51 4.0 11.0 0.00 0.00 0.00 56 1014.1
20260903164402 96 89 3.0 11.0 0.00 0.00 0.00 56 1013.9
20260903163903 96 238 4.0 11.0 0.00 0.00 0.00 56 1014.0
20260903163402 95 115 4.0 11.0 0.00 0.00 0.00 57 1013.9
20260903163137 94 119 4.0 12.0 0.00 0.00 0.00 58 1014.0
20260903162902 95 217 4.0 10.0 0.00 0.00 0.00 59 1014.0
20260903162402 95 257 6.0 10.0 0.00 0.00 0.00 59 1014.0
20260903162124 94 116 3.0 9.0 0.00 0.00 0.00 59 1014.0
20260903161602 94 6 4.0 9.0 0.00 0.00 0.00 59 1014.2
20260903161401 94 295 3.0 9.0 0.00 0.00 0.00 60 1014.0
20260903160901 94 261 3.0 6.0 0.00 0.00 0.00 61 1014.1
20260903160400 93 341 4.0 11.0 0.00 0.00 0.00 62 1014.1
20260903160100 92 58 4.0 12.0 0.00 0.00 0.00 61 1014.2
20260903155902 93 259 5.0 11.0 0.00 0.00 0.00 62 1014.1
20260903155403 92 263 4.0 10.0 0.00 0.00 0.00 64 1013.9
20260903155126 92 205 4.0 11.0 0.00 0.00 0.00 65 1014.0
20260903155111 92 175 4.0 11.0 0.00 0.00 0.00 65 1013.9
20260903154554 91 105 4.0 10.0 0.00 0.00 0.00 64 1014.1
20260903153856 92 123 4.0 10.0 0.00 0.00 0.00 65 1013.9
20260903153355 91 331 2.0 9.0 0.00 0.00 0.00 66 1014.0
20260903153348 91 205 4.0 11.0 0.00 0.00 0.00 68 1014.1
20260903153106 90 174 3.0 10.0 0.00 0.00 0.00 67 1014.2
20260903152346 90 162 4.0 12.0 0.00 0.00 0.00 68 1014.2
20260903151842 89 264 6.0 12.0 0.00 0.00 0.00 70 1014.3
20260903151604 89 55 4.0 10.0 0.00 0.00 0.00 69 1014.4
20260903151343 89 248 4.0 9.0 0.00 0.00 0.00 71 1014.3
20260903150833 89 198 6.0 9.0 0.00 0.00 0.00 72 1014.2
20260903150329 89 168 4.0 8.0 0.00 0.00 0.00 73 1014.3
20260903150139 88 184 4.0 12.0 0.00 0.00 0.00 73 1014.5
20260903150106 88 54 4.0 10.0 0.00 0.00 0.00 74 1014.3
20260903145329 88 224 5.0 10.0 0.00 0.00 0.00 74 1014.3
20260903144829 87 340 4.0 10.0 0.00 0.00 0.00 75 1014.2
20260903144559 87 238 3.0 8.0 0.00 0.00 0.00 75 1014.5
20260903144328 87 273 4.0 8.0 0.00 0.00 0.00 75 1014.2
20260903143829 87 63 4.0 12.0 0.00 0.00 0.00 77 1014.2
20260903143328 87 150 4.0 12.0 0.00 0.00 0.00 77 1014.3
20260903143057 86 226 5.0 12.0 0.00 0.00 0.00 77 1014.5
20260903142831 87 216 4.0 10.0 0.00 0.00 0.00 77 1014.3
20260903142329 86 122 4.0 14.0 0.00 0.00 0.00 79 1014.3
20260903141829 86 11 4.0 14.0 0.00 0.00 0.00 79 1014.2
20260903141606 85 167 3.0 14.0 0.00 0.00 0.00 79 1014.5
20260903141328 86 283 2.0 8.0 0.00 0.00 0.00 80 1014.3
20260903140828 85 200 2.0 8.0 0.00 0.00 0.00 81 1014.5
20260903140328 85 203 2.0 8.0 0.00 0.00 0.00 81 1014.3
20260903140105 85 354 1.0 8.0 0.00 0.00 0.00 81 1014.6
20260903135831 85 252 2.0 8.0 0.00 0.00 0.00 82 1014.4
20260903135600 84 300 2.0 6.0 0.00 0.00 0.00 83 1014.3
20260903134830 84 109 3.0 7.0 0.00 0.00 0.00 83 1014.5
20260903134612 83 22 1.0 8.0 0.00 0.00 0.00 83 1014.5
20260903134556 84 230 2.0 8.0 0.00 0.00 0.00 84 1014.4
20260903133830 83 306 3.0 8.0 0.00 0.00 0.00 84 1014.3
20260903133330 83 101 2.0 5.0 0.00 0.00 0.00 84 1014.3